sat.trackr.live / text

‹ back to catalog

STARLINK-32374

NORAD 62145 · 2024-224G

PAYLOAD ACTIVE UNKNOWN

§ Identity

Operator
Country
US
Launch date
2024-11-30
Launch site
AFETR
Launch vehicle
Mass (kg)
RCS (m²)

Purposes: comms

External: N2YO · Heavens-Above · Gunter

§ Orbital elements

Epoch: 2026-05-24T23:04:17.095872Z

Period
94.27 min
Inclination
43.0030°
Eccentricity
0.0001464
Mean motion
15.27576748 rev/d
Perigee alt
482.1 km
Apogee alt
484.1 km
Semi-major
6,861.2 km
B*
3.8761e-4
RAAN
87.4583°
Arg perigee
271.9223°
Mean anomaly
88.1461°
Rev number
8,414

§ Raw data

STARLINK-323741 62145U 24224G   26144.96130898  .00010418  00000+0  38761-3 0  99942 62145  43.0030  87.4583 0001464 271.9223  88.1461 15.27576748 84143

JSON: /api/v1/satellites/62145 · /tle

For live sub-satellite position, see the globe view (requires WebGL).

§ Visibility from observer

Set your observer location to see the next 7 days of passes ≥ 10°. The values pass through the URL so the page stays shareable.

No JS? Fill the form by hand. The geolocation button needs JavaScript.